QPF
0.02 0.04 0.05 0.03 0.02 0.01 0.01 0.00 0.00 0.00 0.00 0.00 0.00 0.00 0.00 0.00 0.00 0.00 0.00 0.00 0.00 0.00 0.00 0.00 0.00 0.00 0.00 0.00 0.00 0.00 0.00 0.00 0.00 0.00 0.00 0.00 0.00 0.00 0.00 0.00 0.00 0.00 0.00 0.00
0.01 0.02 0.03 0.04 0.03 0.01 0.00 0.00 0.04 0.03 0.00 0.00 0.00 0.00 0.00 0.00 0.00 0.00 0.00 0.00 0.00 0.00 0.00 0.00 0.00 0.00 0.00 0.00 0.00 0.00 0.00 0.00 0.00 0.00 0.00 0.00 0.00 0.00 0.00 0.00 0.00 0.00 0.00 0.00
0.02 0.01 0.02 0.03 0.05 0.01 0.01 0.01 0.05 0.08 0.03 0.00 0.00 0.00 0.00 0.00 0.00 0.00 0.00 0.00 0.00 0.00 0.00 0.00 0.00 0.00 0.00 0.00 0.00 0.00 0.00 0.00 0.00 0.00 0.00 0.00 0.00 0.00 0.00 0.00 0.00 0.00 0.00 0.00
0.02 0.01 0.02 0.02 0.04 0.02 0.01 0.02 0.00 0.01 0.01 0.00 0.00 0.00 0.00 0.00 0.00 0.00 0.00 0.00 0.00 0.00 0.00 0.00 0.00 0.00 0.00 0.00 0.00 0.00 0.00 0.00 0.00 0.00 0.00 0.00 0.00 0.00 0.00 0.00 0.00 0.00 0.00 0.00
0.01 0.01 0.02 0.03 0.03 0.02 0.01 0.01 0.00 0.01 0.00 0.00 0.00 0.00 0.00 0.00 0.00 0.00 0.00 0.00 0.00 0.00 0.00 0.00 0.00 0.00 0.00 0.00 0.00 0.00 0.00 0.00 0.00 0.00 0.00 0.00 0.00 0.00 0.00 0.00 0.00 0.00 0.00 0.00
0.01 0.01 0.01 0.02 0.05 0.05 0.01 0.00 0.00 0.02 0.01 0.00 0.00 0.00 0.00 0.00 0.00 0.00 0.00 0.00 0.00 0.00 0.00 0.00 0.00 0.00 0.00 0.00 0.00 0.00 0.00 0.00 0.00 0.00 0.00 0.00 0.00 0.00 0.00 0.00 0.00 0.00 0.00 0.00
0.01 0.01 0.00 0.01 0.05 0.03 0.00 0.00 0.03 0.08 0.04 0.00 0.00 0.00 0.00 0.00 0.00 0.00 0.00 0.00 0.00 0.00 0.00 0.00 0.00 0.00 0.01 0.02 0.03 0.01 0.02 0.01 0.00 0.00 0.00 0.00 0.00 0.00 0.00 0.00 0.00 0.00 0.00 0.00
0.01 0.01 0.01 0.00 0.03 0.02 0.00 0.01 0.04 0.09 0.03 0.00 0.00 0.00 0.00 0.00 0.00 0.00 0.00 0.00 0.00 0.00 0.00 0.01 0.00 0.00 0.00 0.00 0.01 0.03 0.04 0.00 0.00 0.00 0.00 0.00 0.00 0.00 0.00 0.00 0.00 0.00 0.00 0.00
0.01 0.01 0.01 0.00 0.01 0.01 0.00 0.00 0.03 0.06 0.06 0.01 0.00 0.00 0.00 0.00 0.00 0.00 0.01 0.02 0.00 0.00 0.00 0.00 0.00 0.00 0.00 0.00 0.00 0.00 0.00 0.00 0.00 0.00 0.00 0.00 0.00 0.00 0.00 0.00 0.00 0.00 0.00 0.00
0.02 0.02 0.01 0.00 0.00 0.01 0.00 0.00 0.02 0.05 0.07 0.00 0.00 0.00 0.00 0.00 0.00 0.00 0.00 0.03 0.00 0.00 0.00 0.00 0.00 0.00 0.00 0.00 0.00 0.00 0.00 0.00 0.00 0.00 0.00 0.00 0.00 0.00 0.00 0.00 0.00 0.00 0.00 0.00
0.02 0.02 0.01 0.00 0.00 0.00 0.00 0.01 0.01 0.04 0.05 0.01 0.00 0.00 0.00 0.00 0.00 0.00 0.00 0.01 0.00 0.00 0.00 0.00 0.00 0.00 0.00 0.00 0.00 0.00 0.00 0.00 0.00 0.00 0.00 0.00 0.00 0.00 0.00 0.00 0.00 0.00 0.00 0.00
0.01 0.00 0.00 0.00 0.00 0.00 0.00 0.01 0.01 0.02 0.06 0.04 0.00 0.00 0.00 0.00 0.00 0.00 0.00 0.00 0.00 0.00 0.00 0.00 0.00 0.00 0.00 0.00 0.00 0.00 0.00 0.00 0.00 0.00 0.00 0.00 0.00 0.00 0.00 0.00 0.00 0.00 0.00 0.00
0.00 0.00 0.00 0.00 0.00 0.00 0.00 0.01 0.02 0.07 0.10 0.06 0.03 0.00 0.00 0.00 0.00 0.00 0.00 0.00 0.00 0.00 0.00 0.00 0.00 0.00 0.00 0.00 0.00 0.00 0.00 0.00 0.00 0.00 0.00 0.00 0.00 0.00 0.00 0.00 0.00 0.00 0.00 0.00
0.00 0.00 0.00 0.00 0.00 0.00 0.01 0.01 0.05 0.08 0.07 0.05 0.06 0.00 0.00 0.00 0.00 0.00 0.00 0.00 0.00 0.00 0.00 0.00 0.00 0.00 0.00 0.00 0.00 0.00 0.00 0.00 0.00 0.00 0.00 0.00 0.00 0.00 0.00 0.00 0.00 0.00 0.00 0.00
0.00 0.00 0.00 0.00 0.00 0.02 0.03 0.03 0.06 0.09 0.08 0.07 0.04 0.00 0.00 0.00 0.00 0.00 0.00 0.01 0.00 0.00 0.00 0.00 0.00 0.00 0.00 0.00 0.00 0.00 0.00 0.00 0.00 0.00 0.00 0.00 0.00 0.00 0.00 0.00 0.00 0.00 0.00 0.00
0.00 0.00 0.00 0.01 0.01 0.02 0.03 0.04 0.06 0.12 0.09 0.06 0.02 0.01 0.00 0.00 0.00 0.00 0.00 0.00 0.01 0.00 0.00 0.00 0.00 0.00 0.00 0.00 0.00 0.00 0.00 0.00 0.00 0.00 0.00 0.00 0.00 0.00 0.00 0.00 0.00 0.00 0.00 0.00
0.00 0.00 0.01 0.01 0.01 0.02 0.03 0.04 0.07 0.11 0.06 0.01 0.02 0.01 0.01 0.00 0.00 0.00 0.00 0.00 0.01 0.01 0.00 0.00 0.00 0.00 0.00 0.00 0.00 0.00 0.00 0.00 0.00 0.00 0.00 0.00 0.00 0.00 0.00 0.00 0.00 0.00 0.00 0.00
0.00 0.00 0.01 0.02 0.01 0.04 0.04 0.01 0.03 0.06 0.02 0.00 0.02 0.00 0.01 0.01 0.01 0.01 0.00 0.01 0.02 0.01 0.00 0.00 0.00 0.00 0.00 0.00 0.00 0.00 0.00 0.00 0.00 0.00 0.00 0.00 0.00 0.00 0.00 0.00 0.00 0.00 0.00 0.00
0.00 0.01 0.02 0.02 0.03 0.07 0.03 0.00 0.01 0.01 0.00 0.00 0.01 0.01 0.00 0.01 0.00 0.00 0.01 0.01 0.00 0.00 0.00 0.00 0.00 0.00 0.00 0.00 0.00 0.00 0.00 0.00 0.00 0.00 0.00 0.00 0.00 0.00 0.00 0.00 0.00 0.00 0.00 0.00
0.01 0.02 0.04 0.05 0.03 0.02 0.00 0.00 0.00 0.00 0.00 0.00 0.00 0.02 0.01 0.00 0.00 0.00 0.00 0.00 0.00 0.00 0.00 0.00 0.00 0.00 0.00 0.00 0.00 0.00 0.00 0.00 0.00 0.00 0.00 0.00 0.00 0.00 0.00 0.00 0.00 0.00 0.00 0.00
0.05 0.03 0.01 0.01 0.02 0.02 0.00 0.00 0.00 0.00 0.00 0.00 0.00 0.01 0.01 0.00 0.01 0.01 0.01 0.00 0.00 0.00 0.00 0.00 0.00 0.00 0.00 0.00 0.00 0.00 0.00 0.00 0.00 0.00 0.00 0.00 0.00 0.00 0.00 0.00 0.00 0.00 0.00 0.00
0.03 0.00 0.00 0.01 0.02 0.01 0.00 0.00 0.00 0.00 0.00 0.00 0.00 0.00 0.00 0.00 0.02 0.02 0.01 0.01 0.00 0.00 0.00 0.00 0.00 0.00 0.00 0.00 0.00 0.00 0.00 0.00 0.00 0.00 0.00 0.00 0.00 0.00 0.00 0.00 0.00 0.00 0.00 0.00
0.00 0.00 0.00 0.01 0.00 0.00 0.00 0.00 0.00 0.00 0.00 0.00 0.00 0.00 0.00 0.00 0.00 0.01 0.01 0.01 0.00 0.00 0.00 0.00 0.00 0.00 0.00 0.00 0.00 0.00 0.00 0.00 0.00 0.00 0.00 0.00 0.00 0.00 0.00 0.00 0.00 0.00 0.00 0.00
0.00 0.00 0.00 0.00 0.00 0.00 0.00 0.00 0.00 0.00 0.00 0.00 0.00 0.00 0.00 0.00 0.00 0.00 0.00 0.00 0.00 0.00 0.00 0.00 0.00 0.00 0.00 0.00 0.00 0.00 0.00 0.00 0.00 0.00 0.00 0.00 0.00 0.00 0.00 0.00 0.00 0.00 0.00 0.00
0.00 0.00 0.00 0.00 0.00 0.00 0.00 0.00 0.00 0.00 0.00 0.00 0.00 0.00 0.00 0.00 0.00 0.00 0.00 0.00 0.00 0.00 0.00 0.00 0.00 0.00 0.00 0.00 0.00 0.00 0.00 0.00 0.00 0.00 0.00 0.00 0.00 0.00 0.00 0.00 0.00 0.00 0.00 0.00
0.00 0.00 0.00 0.00 0.00 0.00 0.00 0.00 0.00 0.00 0.00 0.00 0.00 0.00 0.00 0.00 0.00 0.00 0.00 0.00 0.00 0.00 0.00 0.00 0.00 0.00 0.00 0.00 0.00 0.00 0.00 0.00 0.00 0.00 0.00 0.00 0.00 0.00 0.00 0.00 0.00 0.00 0.00 0.00
0.00 0.00 0.00 0.00 0.00 0.00 0.00 0.00 0.00 0.00 0.00 0.00 0.00 0.00 0.00 0.00 0.00 0.00 0.00 0.00 0.00 0.00 0.00 0.00 0.00 0.00 0.00 0.00 0.00 0.00 0.00 0.00 0.00 0.00 0.00 0.00 0.00 0.00 0.00 0.00 0.00 0.00 0.00 0.00
MSLP
1007.36 1008.13 1008.49 1009.20 1010.18 1011.23 1012.37 1011.93 1011.75 1011.41 1012.78 1013.96 1012.77 1011.51 1010.27 1008.79 1006.69 1005.86 1005.51 1004.46 1004.41 1004.69 1005.19 1006.11 1006.09 1006.14 1006.35 1006.47 1006.40 1008.30 1009.30 1010.81 1011.28 1010.41 1008.89 1008.24 1008.68 1009.18 1010.28 1012.33 1013.92 1014.38 1013.88 1012.16
1006.26 1007.09 1007.50 1008.26 1008.92 1009.84 1010.72 1010.38 1010.41 1011.63 1010.53 1011.03 1010.61 1010.34 1009.49 1008.46 1006.71 1005.73 1004.91 1004.37 1004.27 1004.38 1004.96 1006.68 1005.69 1006.15 1006.60 1006.52 1006.99 1007.88 1008.75 1009.70 1010.54 1010.49 1009.65 1008.71 1008.64 1008.77 1009.49 1010.95 1012.58 1013.59 1013.59 1011.76
1005.07 1006.05 1006.63 1007.24 1008.00 1008.90 1009.53 1009.07 1009.08 1010.06 1010.25 1008.46 1008.80 1008.99 1008.24 1007.66 1006.17 1005.70 1004.95 1004.27 1004.19 1004.46 1005.24 1005.96 1005.94 1006.22 1006.48 1006.48 1007.71 1007.93 1008.24 1009.45 1010.44 1010.64 1009.95 1009.21 1009.04 1008.74 1009.16 1010.21 1012.08 1012.67 1012.37 1011.19
1003.88 1004.94 1005.81 1006.60 1007.10 1008.16 1008.47 1007.41 1006.24 1005.84 1006.69 1007.51 1007.45 1007.63 1007.09 1006.50 1005.80 1005.12 1004.49 1004.12 1004.05 1004.39 1004.71 1005.06 1005.40 1006.54 1007.34 1007.72 1008.10 1008.36 1008.80 1010.07 1010.51 1010.55 1010.21 1009.74 1009.29 1009.15 1009.19 1009.65 1010.32 1011.22 1011.01 1010.58
1003.12 1003.92 1004.92 1005.88 1006.39 1007.30 1007.79 1006.01 1004.58 1005.14 1005.10 1006.38 1006.88 1006.19 1005.54 1005.13 1004.79 1004.50 1003.77 1003.88 1003.79 1004.12 1004.44 1004.94 1005.42 1006.06 1007.09 1007.70 1008.65 1008.85 1009.27 1010.68 1011.31 1011.66 1011.09 1010.64 1010.12 1009.44 1009.04 1009.17 1009.33 1009.66 1009.71 1009.53
1002.24 1003.17 1003.94 1005.28 1005.54 1006.50 1005.52 1005.54 1003.70 1003.83 1004.46 1005.11 1005.59 1004.05 1004.17 1003.93 1004.23 1003.75 1003.08 1003.39 1003.76 1004.24 1004.65 1004.86 1005.47 1006.00 1007.23 1007.67 1008.63 1009.51 1010.48 1011.65 1012.89 1013.37 1012.80 1011.81 1011.05 1009.59 1009.03 1008.91 1008.87 1009.24 1009.56 1009.19
1001.28 1002.20 1003.14 1004.36 1004.92 1005.20 1004.98 1004.61 1003.75 1003.64 1003.75 1003.84 1002.88 1003.64 1003.63 1003.57 1003.55 1003.79 1002.92 1003.01 1003.68 1004.53 1004.35 1005.32 1006.40 1007.48 1008.38 1008.52 1009.75 1010.01 1011.21 1012.83 1013.86 1015.04 1014.63 1013.27 1010.62 1008.97 1008.48 1008.68 1009.25 1009.19 1009.63 1009.84
1000.43 1001.34 1002.50 1003.43 1004.14 1004.73 1005.47 1004.44 1004.84 1003.57 1003.11 1002.90 1003.22 1002.56 1002.47 1003.27 1003.40 1003.45 1003.30 1003.27 1003.24 1004.19 1005.48 1007.71 1009.01 1009.97 1010.48 1011.05 1011.06 1010.99 1011.62 1013.20 1015.13 1015.90 1015.48 1013.26 1010.65 1009.28 1008.79 1008.73 1010.06 1009.92 1010.15 1010.52
999.88 1000.82 1001.76 1002.47 1003.31 1004.43 1005.62 1005.04 1004.79 1004.51 1003.32 1001.22 1001.15 1001.90 1001.97 1002.67 1002.90 1003.59 1003.43 1004.48 1004.21 1004.32 1006.97 1008.61 1010.49 1011.11 1010.99 1011.54 1011.59 1011.88 1012.38 1013.21 1015.03 1016.33 1015.90 1014.03 1011.15 1009.57 1008.92 1008.91 1010.35 1010.52 1010.51 1010.93
999.19 1000.30 1001.14 1002.01 1002.91 1004.08 1005.11 1005.10 1005.41 1005.10 1002.95 1001.04 1000.42 1000.17 1000.32 1001.52 1002.45 1003.73 1004.66 1005.81 1005.31 1005.53 1008.30 1010.36 1011.29 1011.38 1010.75 1011.56 1011.98 1012.79 1013.65 1014.41 1015.64 1016.00 1015.31 1013.17 1010.61 1009.47 1009.26 1010.06 1011.45 1010.76 1010.93 1011.37
998.77 999.63 1000.66 1001.67 1002.61 1003.77 1004.64 1004.48 1005.06 1004.77 1003.26 1001.00 1000.10 999.57 999.81 1000.64 1001.07 1002.83 1004.59 1006.66 1005.99 1006.99 1008.51 1010.27 1011.34 1012.15 1011.34 1011.40 1011.58 1012.00 1012.86 1014.07 1015.12 1015.34 1014.50 1012.57 1009.97 1009.71 1010.03 1010.55 1010.82 1011.10 1011.37 1011.68
998.65 999.58 1000.61 1001.50 1002.67 1003.59 1004.35 1004.40 1004.44 1005.13 1004.93 1002.01 1000.15 999.14 998.46 999.08 999.34 1001.01 1003.14 1004.03 1004.44 1005.20 1007.03 1009.47 1011.25 1012.34 1012.26 1012.13 1012.16 1011.03 1011.60 1011.59 1012.51 1012.74 1012.05 1010.73 1009.61 1009.68 1009.79 1010.15 1010.90 1011.34 1011.75 1012.17
998.53 999.47 1000.30 1001.19 1001.73 1002.64 1003.69 1004.12 1004.61 1004.92 1004.39 1002.36 1001.38 999.87 999.67 999.20 998.96 999.29 1001.36 1002.91 1002.95 1004.23 1005.07 1008.41 1010.87 1012.02 1012.26 1012.32 1011.72 1010.84 1010.24 1010.18 1010.93 1011.29 1010.66 1010.23 1009.76 1009.68 1010.02 1010.65 1011.49 1012.06 1012.63 1013.09
998.49 999.46 1000.23 1001.07 1002.01 1003.03 1003.93 1004.63 1004.98 1004.65 1003.75 1000.82 999.53 999.51 999.85 999.47 999.31 999.54 1000.36 1001.36 1002.29 1003.81 1005.66 1008.35 1010.56 1011.23 1010.76 1011.57 1010.86 1010.46 1009.89 1009.88 1010.51 1010.88 1010.52 1010.95 1011.22 1011.18 1011.43 1011.91 1012.32 1013.14 1013.89 1014.49
998.44 999.27 1000.18 1000.81 1002.43 1003.32 1004.29 1005.33 1004.78 1004.10 1004.60 1002.97 1000.90 999.98 1000.23 1000.02 999.79 1000.22 1000.82 1001.79 1003.01 1004.86 1007.32 1008.98 1009.82 1009.70 1010.32 1011.06 1010.73 1010.30 1009.41 1009.62 1010.28 1011.03 1010.90 1011.21 1012.50 1012.40 1012.52 1013.05 1013.90 1014.48 1015.07 1015.97
998.56 999.07 1000.31 1001.46 1002.16 1003.56 1004.63 1003.50 1002.73 1003.95 1004.00 1003.09 1002.23 1001.70 1000.92 1000.72 1001.09 1001.59 1002.20 1002.85 1003.96 1005.14 1006.91 1008.61 1008.85 1008.70 1009.29 1011.11 1011.30 1010.32 1009.45 1009.59 1009.55 1010.73 1011.05 1011.81 1013.09 1013.73 1014.15 1014.68 1015.58 1016.14 1016.59 1017.42
998.59 999.48 1000.40 1001.30 1002.03 1002.70 1002.05 1001.79 1000.95 1001.63 1002.78 1001.36 1002.81 1003.20 1002.40 1002.00 1002.35 1003.22 1003.48 1003.52 1004.77 1005.88 1007.51 1008.63 1009.11 1009.23 1009.55 1010.79 1010.83 1010.39 1010.03 1010.21 1010.58 1010.99 1011.63 1013.11 1013.59 1015.12 1015.69 1016.26 1017.06 1017.58 1018.23 1018.80
998.56 999.43 1000.69 1001.54 1002.28 1001.71 1002.03 1001.35 1000.83 1001.49 1001.76 1001.78 1004.31 1005.07 1004.66 1003.67 1004.50 1005.08 1004.94 1005.37 1006.30 1007.56 1008.66 1008.91 1009.65 1009.98 1010.16 1010.91 1010.46 1010.28 1010.45 1010.81 1011.40 1011.89 1012.14 1013.55 1014.95 1015.91 1016.84 1017.51 1018.07 1018.65 1019.30 1019.81
999.12 999.78 1000.95 1001.87 1002.04 1002.17 1001.46 1000.80 1000.75 999.96 1001.07 1003.32 1004.94 1005.98 1005.97 1005.25 1006.13 1006.20 1006.50 1006.93 1008.70 1009.07 1009.60 1009.63 1009.87 1011.09 1011.24 1010.61 1010.56 1010.70 1010.80 1011.11 1012.10 1012.90 1013.80 1014.87 1015.80 1016.88 1017.77 1018.32 1018.92 1019.45 1020.26 1020.70
998.03 999.16 999.84 999.61 999.75 999.47 999.61 999.70 1000.43 1001.60 1002.83 1003.90 1005.72 1006.36 1006.74 1006.59 1007.25 1007.99 1008.70 1008.88 1009.61 1010.23 1010.39 1009.88 1010.53 1011.67 1011.66 1011.33 1011.24 1011.35 1011.35 1011.79 1012.50 1013.71 1015.12 1015.95 1016.94 1017.75 1018.53 1019.24 1019.80 1020.41 1021.06 1021.71
998.75 999.03 999.92 1000.55 1000.37 1000.53 1001.36 1002.45 1003.39 1004.04 1005.05 1005.75 1006.57 1006.45 1006.97 1007.02 1007.82 1008.83 1009.39 1009.75 1009.95 1010.49 1010.79 1010.83 1011.58 1012.05 1011.99 1011.96 1012.12 1012.35 1012.55 1012.82 1013.39 1014.09 1015.31 1016.45 1017.31 1018.52 1019.32 1020.14 1020.86 1021.54 1022.19 1022.72
997.97 999.29 1000.80 1001.14 1001.71 1002.65 1003.67 1004.99 1005.38 1005.51 1006.93 1007.31 1007.44 1006.87 1007.38 1007.65 1007.81 1008.73 1009.52 1010.15 1010.32 1011.04 1010.98 1011.49 1012.09 1012.32 1012.16 1012.47 1013.03 1013.49 1013.86 1014.47 1015.14 1015.77 1016.72 1017.57 1018.52 1019.32 1020.15 1021.02 1021.77 1022.41 1022.99 1023.43
998.39 1000.08 1002.64 1003.56 1005.49 1006.00 1006.91 1007.46 1007.68 1008.07 1008.60 1008.58 1008.21 1008.15 1008.17 1008.33 1008.42 1009.20 1009.71 1010.42 1011.04 1011.02 1011.78 1012.29 1012.59 1013.00 1013.18 1013.29 1013.85 1014.42 1015.01 1015.76 1016.53 1017.49 1018.28 1018.98 1019.87 1020.53 1021.06 1021.82 1022.47 1023.07 1023.55 1023.99
1001.70 1003.72 1005.97 1006.86 1008.04 1008.80 1008.63 1008.54 1009.11 1009.70 1009.54 1008.82 1008.59 1008.84 1009.23 1009.23 1009.48 1009.97 1010.64 1011.33 1011.37 1012.01 1012.71 1012.86 1013.41 1013.95 1013.96 1014.08 1014.54 1015.13 1016.18 1017.07 1018.01 1018.99 1019.80 1020.43 1020.96 1021.59 1022.21 1022.76 1023.18 1023.61 1024.12 1024.67
1004.93 1006.16 1008.11 1008.85 1009.35 1009.43 1009.55 1009.62 1009.70 1009.99 1009.58 1009.22 1009.36 1009.71 1009.98 1010.21 1010.50 1010.78 1011.48 1012.03 1012.17 1012.35 1013.15 1013.64 1014.07 1014.43 1014.50 1014.84 1015.53 1016.43 1017.37 1018.26 1019.22 1020.15 1020.70 1021.29 1021.87 1022.40 1023.03 1023.53 1023.88 1024.25 1024.67 1025.12
1007.82 1009.12 1009.77 1009.92 1009.92 1010.19 1010.16 1010.15 1010.30 1010.10 1010.03 1010.05 1010.19 1010.47 1010.68 1011.03 1011.17 1011.39 1011.74 1012.22 1013.06 1013.76 1014.12 1014.31 1014.55 1014.91 1015.29 1015.94 1016.60 1017.37 1018.23 1019.06 1019.90 1020.58 1021.16 1021.79 1022.41 1022.89 1023.42 1023.96 1024.37 1024.72 1025.04 1025.50
1010.13 1011.01 1011.02 1010.94 1011.26 1011.38 1011.32 1011.31 1011.09 1010.83 1010.81 1010.92 1010.76 1011.04 1011.77 1011.89 1012.17 1013.01 1013.46 1013.99 1014.38 1014.58 1014.85 1015.07 1015.22 1015.51 1016.07 1016.86 1017.58 1018.28 1018.94 1019.68 1020.38 1021.01 1021.63 1022.19 1022.73 1023.32 1023.87 1024.31 1024.71 1025.13 1025.40 1025.63
Thickness
5451 5462 5478 5490 5497 5502 5504 5526 5540 5550 5541 5539 5560 5575 5599 5621 5637 5646 5643 5659 5656 5654 5656 5647 5646 5649 5653 5667 5676 5647 5646 5625 5601 5629 5661 5672 5663 5656 5644 5596 5618 5598 5590 5611
5429 5445 5463 5475 5486 5498 5505 5526 5540 5532 5545 5549 5565 5583 5597 5613 5625 5633 5642 5649 5658 5665 5651 5623 5652 5653 5660 5666 5663 5654 5655 5631 5593 5615 5640 5657 5654 5658 5658 5640 5613 5609 5581 5608
5407 5424 5446 5464 5473 5487 5499 5519 5529 5529 5538 5576 5577 5581 5595 5603 5627 5628 5641 5649 5655 5653 5644 5642 5643 5641 5658 5666 5653 5649 5657 5642 5619 5596 5625 5646 5640 5650 5653 5641 5592 5602 5600 5631
5392 5407 5428 5445 5463 5472 5486 5511 5545 5564 5563 5564 5576 5584 5598 5604 5608 5629 5642 5639 5645 5645 5643 5648 5647 5639 5640 5650 5644 5654 5645 5625 5640 5638 5643 5645 5647 5644 5644 5641 5634 5612 5626 5632
5376 5391 5403 5425 5451 5463 5469 5513 5553 5560 5572 5572 5570 5585 5596 5608 5616 5625 5634 5633 5644 5647 5646 5646 5645 5647 5641 5639 5642 5643 5645 5615 5630 5626 5634 5627 5626 5633 5638 5641 5647 5646 5643 5638
5365 5378 5394 5410 5434 5441 5470 5504 5549 5564 5568 5569 5568 5593 5606 5616 5620 5631 5646 5644 5643 5640 5647 5654 5655 5655 5644 5646 5633 5626 5622 5604 5593 5599 5603 5608 5588 5623 5633 5637 5644 5642 5626 5640
5360 5372 5388 5401 5418 5440 5478 5515 5539 5553 5558 5568 5590 5596 5608 5614 5618 5619 5643 5648 5640 5642 5656 5653 5647 5638 5630 5630 5622 5629 5609 5601 5582 5575 5575 5564 5617 5644 5646 5638 5635 5635 5631 5631
5359 5367 5383 5397 5415 5443 5468 5505 5515 5544 5544 5576 5577 5597 5609 5614 5619 5624 5633 5643 5650 5648 5642 5612 5608 5590 5601 5604 5613 5614 5613 5588 5575 5565 5564 5593 5616 5633 5633 5630 5615 5627 5622 5622
5357 5365 5381 5401 5421 5444 5463 5486 5509 5532 5553 5582 5599 5595 5606 5599 5605 5608 5622 5626 5638 5647 5611 5596 5597 5580 5598 5588 5601 5603 5606 5594 5574 5562 5560 5556 5598 5628 5638 5635 5587 5619 5619 5615
5359 5368 5384 5407 5424 5445 5459 5480 5501 5523 5559 5580 5593 5597 5606 5612 5608 5599 5607 5606 5619 5631 5579 5583 5579 5584 5614 5587 5582 5576 5562 5564 5558 5535 5537 5571 5614 5628 5632 5586 5582 5615 5615 5608
5365 5375 5390 5416 5431 5446 5463 5487 5502 5525 5555 5579 5597 5608 5606 5610 5613 5596 5604 5580 5602 5595 5594 5584 5580 5573 5590 5588 5599 5586 5578 5562 5545 5553 5550 5562 5620 5620 5598 5597 5608 5606 5604 5601
5372 5379 5398 5422 5437 5454 5471 5492 5512 5522 5535 5571 5593 5610 5627 5626 5633 5620 5612 5608 5619 5621 5603 5593 5579 5567 5569 5584 5573 5611 5583 5592 5576 5580 5574 5602 5621 5612 5614 5610 5603 5603 5597 5589
5377 5388 5410 5431 5453 5469 5483 5500 5511 5523 5540 5562 5573 5591 5608 5623 5631 5641 5617 5618 5632 5628 5629 5601 5585 5579 5564 5572 5573 5602 5614 5615 5587 5592 5607 5608 5612 5614 5607 5601 5594 5588 5579 5573
5382 5398 5423 5442 5458 5474 5485 5491 5503 5517 5536 5542 5576 5599 5599 5614 5624 5631 5623 5630 5633 5629 5617 5588 5577 5577 5599 5570 5591 5584 5598 5605 5597 5591 5601 5592 5588 5588 5586 5581 5577 5569 5558 5548
5395 5416 5435 5453 5461 5473 5487 5496 5517 5526 5532 5549 5565 5589 5596 5604 5613 5622 5625 5624 5621 5611 5592 5569 5580 5582 5586 5567 5575 5574 5602 5594 5573 5556 5590 5583 5573 5573 5571 5564 5554 5549 5537 5524
5413 5436 5448 5457 5473 5483 5494 5512 5530 5511 5522 5547 5548 5571 5586 5599 5603 5607 5611 5611 5608 5607 5593 5579 5590 5601 5585 5556 5550 5592 5595 5592 5592 5579 5580 5573 5560 5550 5544 5537 5526 5519 5512 5502
5442 5451 5462 5474 5487 5492 5502 5530 5541 5540 5537 5564 5552 5549 5573 5588 5590 5586 5593 5602 5595 5593 5587 5570 5577 5587 5581 5545 5556 5582 5582 5578 5575 5570 5566 5553 5551 5528 5521 5512 5503 5496 5488 5479
5459 5469 5478 5486 5496 5518 5518 5530 5545 5542 5551 5558 5530 5535 5551 5572 5559 5557 5577 5574 5575 5570 5568 5566 5556 5565 5548 5553 5572 5572 5571 5566 5560 5554 5551 5536 5521 5510 5499 5493 5485 5477 5468 5462
5475 5481 5483 5486 5492 5509 5519 5538 5543 5554 5551 5526 5520 5530 5539 5555 5543 5546 5557 5561 5542 5549 5539 5548 5552 5527 5548 5566 5564 5559 5558 5556 5547 5538 5526 5514 5503 5493 5484 5475 5467 5462 5450 5443
5502 5504 5505 5505 5515 5528 5535 5545 5538 5535 5533 5529 5516 5525 5533 5542 5522 5527 5531 5526 5525 5523 5526 5547 5537 5517 5539 5543 5542 5540 5543 5540 5531 5513 5500 5493 5484 5476 5467 5457 5450 5442 5432 5421
5507 5511 5507 5510 5518 5528 5521 5513 5515 5519 5509 5513 5512 5520 5523 5531 5524 5521 5516 5518 5516 5523 5524 5523 5508 5511 5528 5525 5523 5519 5518 5516 5512 5505 5491 5478 5469 5454 5445 5434 5424 5413 5403 5395
5523 5518 5514 5517 5517 5512 5504 5498 5502 5516 5513 5501 5508 5517 5522 5512 5524 5508 5512 5510 5506 5514 5515 5518 5521 5511 5511 5509 5504 5501 5496 5488 5482 5476 5466 5456 5447 5437 5424 5412 5402 5393 5385 5379
5526 5513 5497 5505 5480 5493 5486 5495 5496 5499 5486 5489 5493 5500 5507 5505 5511 5504 5509 5519 5506 5496 5500 5505 5494 5497 5493 5491 5486 5482 5476 5469 5460 5448 5438 5429 5417 5409 5403 5394 5385 5377 5370 5363
5496 5483 5474 5476 5476 5462 5469 5478 5476 5467 5471 5485 5493 5492 5493 5490 5495 5490 5502 5486 5491 5496 5494 5496 5477 5471 5472 5473 5473 5468 5455 5441 5430 5420 5409 5401 5396 5388 5381 5374 5368 5359 5351 5343
5471 5470 5464 5456 5450 5455 5458 5459 5464 5464 5473 5479 5486 5483 5486 5481 5484 5478 5477 5480 5490 5490 5483 5468 5460 5458 5458 5457 5448 5436 5426 5417 5408 5396 5389 5382 5376 5369 5362 5354 5347 5340 5332 5323
5451 5442 5450 5448 5456 5455 5456 5457 5459 5463 5465 5467 5469 5474 5477 5474 5475 5483 5480 5486 5473 5459 5449 5446 5446 5444 5440 5434 5426 5418 5409 5399 5389 5382 5375 5367 5359 5352 5344 5335 5327 5318 5312 5304
5436 5433 5430 5437 5440 5442 5444 5444 5450 5453 5457 5464 5464 5470 5460 5456 5466 5459 5450 5449 5442 5436 5433 5432 5431 5427 5421 5412 5404 5396 5388 5380 5372 5365 5357 5350 5342 5333 5324 5319 5312 5303 5294 5286